Tracking 18851 objects as of 25-Nov-2017
HD Live streaming from Space Station
objects crossing your sky now

FENGYUN 1C DEB

Track FENGYUN 1C DEB now!
10-day predictions


NORAD ID: 30073
Int'l Code: 1999-025QA
Perigee: 837.4 km
Apogee: 929.3 km
Inclination: 99.4 °
Period: 102.5 minutes
Semi major axis: 7254 km
RCS: 0.041 m2 (small)
Launch date: May 10, 1999
Source: People's Republic of China (PRC)
Launch site: Taiyaun Space Center, China (TSC)

Note: This is SATELLITE DEBRIS
aabbcc
Your satellite tracking list
Your tracking list is empty




NASA's NSSDC Master Catalog

Two Line Element Set (TLE):
1 30073U 99025QA  17328.45572703 +.00000602 +00000-0 +39554-3 0  9999
2 30073 099.4454 133.4167 0063377 133.4650 286.3683 14.05087031555306
Source of the keplerian elements: AFSPC